• In Uzbekistan
  • List of Countries
  • For 7 days
  • Water Temperature
  • Weather Map
  • Weather Widgets
  • user-avatar
    Login

    Hourly Weather Muyinga

    Today, 23 August, Friday

    Time Temperature Precipitation Wind Pressure Humidity
    00:00 +22°C° 0 mm 1 mps 630 mmHg 46%
    01:00 +22°C° 0 mm 1 mps 630 mmHg 47%
    02:00 +21°C° 0 mm 1 mps 629 mmHg 48%
    03:00 +21°C° 0 mm 1 mps 629 mmHg 48%
    04:00 +21°C° 0 mm 1 mps 629 mmHg 49%
    05:00 +21°C° 0 mm 1 mps 629 mmHg 50%
    06:00 +20°C° 0 mm 2 mps 630 mmHg 48%
    07:00 +21°C° 0 mm 2 mps 631 mmHg 46%
    08:00 +22°C° 0 mm 4 mps 632 mmHg 44%
    09:00 +25°C° 0 mm 3 mps 632 mmHg 39%
    10:00 +26°C° 0 mm 3 mps 633 mmHg 35%
    11:00 +28°C° 0 mm 3 mps 633 mmHg 31%
    12:00 +29°C° 0 mm 3 mps 632 mmHg 28%
    13:00 +30°C° 0 mm 2 mps 632 mmHg 26%
    14:00 +32°C° 0 mm 2 mps 632 mmHg 24%
    15:00 +30°C° 0 mm 2 mps 631 mmHg 26%
    16:00 +29°C° 0 mm 2 mps 631 mmHg 28%
    17:00 +28°C° 0 mm 2 mps 630 mmHg 29%
    18:00 +27°C° 0 mm 2 mps 630 mmHg 32%
    19:00 +26°C° 0 mm 1 mps 630 mmHg 35%
    20:00 +24°C° 0 mm 1 mps 630 mmHg 38%
    21:00 +24°C° 0 mm 1 mps 630 mmHg 40%
    22:00 +23°C° 0 mm 1 mps 630 mmHg 43%
    23:00 +22°C° 0 mm 1 mps 630 mmHg 45%

    Tomorrow, 24 August, Saturday

    Time Temperature Precipitation Wind Pressure Humidity
    00:00 +21°C° 0 mm 1 mps 630 mmHg 47%
    01:00 +20°C° 0 mm 1 mps 629 mmHg 50%
    02:00 +19°C° 0 mm 1 mps 629 mmHg 52%
    03:00 +19°C° 0 mm 1 mps 629 mmHg 55%
    04:00 +19°C° 0 mm 1 mps 628 mmHg 57%
    05:00 +18°C° 0 mm 1 mps 628 mmHg 59%
    06:00 +19°C° 0 mm 2 mps 630 mmHg 54%
    07:00 +21°C° 0 mm 2 mps 631 mmHg 48%
    08:00 +24°C° 0 mm 3 mps 632 mmHg 42%
    09:00 +26°C° 0 mm 3 mps 632 mmHg 37%
    10:00 +27°C° 0 mm 3 mps 632 mmHg 33%
    11:00 +29°C° 0 mm 3 mps 633 mmHg 29%
    12:00 +29°C° 0 mm 3 mps 632 mmHg 29%
    13:00 +29°C° 0 mm 2 mps 631 mmHg 29%
    14:00 +29°C° 0 mm 2 mps 630 mmHg 29%
    15:00 +29°C° 0 mm 2 mps 630 mmHg 30%
    16:00 +28°C° 0 mm 2 mps 630 mmHg 31%
    17:00 +28°C° 0 mm 2 mps 629 mmHg 32%
    18:00 +26°C° 0 mm 1 mps 629 mmHg 35%
    19:00 +25°C° 0 mm 1 mps 630 mmHg 39%
    20:00 +24°C° 0 mm 1 mps 630 mmHg 42%
    21:00 +23°C° 0 mm 1 mps 630 mmHg 45%
    22:00 +20°C° 0 mm 0 mps 629 mmHg 47%
    23:00 +19°C° 0 mm 0 mps 629 mmHg 49%

    Day after tomorrow, 25 August, Sunday

    Time Temperature Precipitation Wind Pressure Humidity
    00:00 +19°C° 0 mm 0 mps 629 mmHg 48%
    01:00 +21°C° 0 mm 1 mps 629 mmHg 48%
    02:00 +22°C° 0 mm 1 mps 629 mmHg 47%
    03:00 +21°C° 0 mm 1 mps 629 mmHg 49%
    04:00 +20°C° 0 mm 1 mps 629 mmHg 52%
    05:00 +20°C° 0 mm 1 mps 629 mmHg 54%
    06:00 +19°C° 0 mm 2 mps 630 mmHg 55%
    07:00 +20°C° 0 mm 3 mps 631 mmHg 57%
    08:00 +20°C° 0 mm 3 mps 631 mmHg 58%
    09:00 +22°C° 0 mm 3 mps 632 mmHg 54%
    10:00 +24°C° 0 mm 3 mps 632 mmHg 49%
    11:00 +25°C° 0 mm 3 mps 632 mmHg 45%
    12:00 +26°C° 0.1 mm 3 mps 631 mmHg 44%
    13:00 +26°C° 0.1 mm 2 mps 631 mmHg 43%
    14:00 +26°C° 0.1 mm 2 mps 630 mmHg 42%
    15:00 +25°C° 0 mm 2 mps 629 mmHg 47%
    16:00 +24°C° 0 mm 3 mps 629 mmHg 52%
    17:00 +22°C° 0 mm 3 mps 628 mmHg 57%
    18:00 +21°C° 0 mm 2 mps 628 mmHg 58%
    19:00 +20°C° 0 mm 2 mps 629 mmHg 59%
    20:00 +20°C° 0 mm 1 mps 629 mmHg 60%
    21:00 +20°C° 0 mm 1 mps 629 mmHg 61%
    22:00 +20°C° 0 mm 1 mps 629 mmHg 62%
    23:00 +19°C° 0 mm 1 mps 629 mmHg 64%

    26 August, Monday

    Time Temperature Precipitation Wind Pressure Humidity
    00:00 +19°C° 0 mm 1 mps 629 mmHg 63%
    01:00 +19°C° 0 mm 1 mps 629 mmHg 63%
    02:00 +19°C° 0 mm 1 mps 629 mmHg 63%
    03:00 +19°C° 0 mm 1 mps 629 mmHg 64%
    04:00 +19°C° 0 mm 1 mps 629 mmHg 66%
    05:00 +19°C° 0 mm 1 mps 629 mmHg 68%
    06:00 +20°C° 0 mm 1 mps 630 mmHg 64%
    07:00 +19°C° 0 mm 2 mps 631 mmHg 60%
    08:00 +20°C° 0 mm 2 mps 631 mmHg 56%
    09:00 +24°C° 0 mm 3 mps 632 mmHg 49%
    10:00 +26°C° 0 mm 3 mps 632 mmHg 41%
    11:00 +29°C° 0 mm 4 mps 633 mmHg 33%
    12:00 +29°C° 0 mm 4 mps 632 mmHg 32%
    13:00 +30°C° 0 mm 4 mps 631 mmHg 30%
    14:00 +30°C° 0 mm 4 mps 630 mmHg 28%
    15:00 +30°C° 0 mm 3 mps 630 mmHg 29%
    16:00 +29°C° 0 mm 3 mps 629 mmHg 30%
    17:00 +28°C° 0 mm 3 mps 629 mmHg 31%
    18:00 +26°C° 0 mm 2 mps 629 mmHg 35%
    19:00 +25°C° 0 mm 2 mps 629 mmHg 39%
    20:00 +23°C° 0 mm 1 mps 629 mmHg 42%
    21:00 +23°C° 0 mm 1 mps 629 mmHg 42%
    22:00 +23°C° 0 mm 1 mps 629 mmHg 42%
    23:00 +21°C° 0 mm 0 mps 630 mmHg 42%

    27 August, Tuesday

    Time Temperature Precipitation Wind Pressure Humidity
    00:00 +20°C° 0 mm 0 mps 629 mmHg 44%
    01:00 +22°C° 0 mm 1 mps 629 mmHg 46%
    02:00 +21°C° 0 mm 1 mps 629 mmHg 48%
    03:00 +20°C° 0 mm 1 mps 629 mmHg 50%
    04:00 +20°C° 0 mm 1 mps 629 mmHg 52%
    05:00 +19°C° 0 mm 1 mps 629 mmHg 54%
    06:00 +19°C° 0 mm 2 mps 630 mmHg 52%
    07:00 +21°C° 0 mm 3 mps 631 mmHg 49%
    08:00 +22°C° 0 mm 4 mps 632 mmHg 46%
    09:00 +25°C° 0 mm 3 mps 632 mmHg 42%
    10:00 +26°C° 0 mm 3 mps 632 mmHg 37%
    11:00 +28°C° 0 mm 3 mps 632 mmHg 33%
    12:00 +28°C° 0 mm 3 mps 631 mmHg 32%
    13:00 +28°C° 0 mm 3 mps 630 mmHg 32%
    14:00 +28°C° 0 mm 3 mps 630 mmHg 32%
    15:00 +28°C° 0 mm 3 mps 629 mmHg 32%
    16:00 +28°C° 0 mm 3 mps 629 mmHg 32%
    17:00 +28°C° 0 mm 3 mps 629 mmHg 32%
    18:00 +26°C° 0 mm 2 mps 629 mmHg 36%
    19:00 +24°C° 0 mm 1 mps 629 mmHg 41%
    20:00 +22°C° 0 mm 1 mps 629 mmHg 45%
    21:00 +21°C° 0 mm 1 mps 629 mmHg 46%
    22:00 +21°C° 0 mm 1 mps 629 mmHg 47%
    23:00 +20°C° 0 mm 1 mps 629 mmHg 48%

    28 August, Wednesday

    Time Temperature Precipitation Wind Pressure Humidity
    00:00 +20°C° 0 mm 1 mps 628 mmHg 50%
    01:00 +20°C° 0 mm 1 mps 628 mmHg 51%
    02:00 +20°C° 0 mm 1 mps 628 mmHg 52%
    03:00 +19°C° 0 mm 1 mps 628 mmHg 55%
    04:00 +16°C° 0 mm 0 mps 628 mmHg 58%
    05:00 +16°C° 0 mm 0 mps 628 mmHg 61%
    06:00 +20°C° 0 mm 1 mps 629 mmHg 55%
    07:00 +22°C° 0 mm 1 mps 630 mmHg 49%
    08:00 +24°C° 0 mm 2 mps 631 mmHg 43%
    09:00 +26°C° 0 mm 2 mps 631 mmHg 38%
    10:00 +27°C° 0 mm 3 mps 632 mmHg 33%
    11:00 +29°C° 0 mm 3 mps 632 mmHg 29%
    12:00 +29°C° 0 mm 3 mps 631 mmHg 29%
    13:00 +29°C° 0 mm 3 mps 630 mmHg 29%
    14:00 +29°C° 0 mm 2 mps 629 mmHg 29%
    15:00 +28°C° 0 mm 2 mps 629 mmHg 31%
    16:00 +27°C° 0 mm 2 mps 629 mmHg 33%
    17:00 +27°C° 0 mm 2 mps 629 mmHg 35%
    18:00 +25°C° 0 mm 2 mps 628 mmHg 41%
    19:00 +23°C° 0 mm 1 mps 628 mmHg 47%
    20:00 +19°C° 0 mm 0 mps 628 mmHg 53%
    21:00 +19°C° 0 mm 0 mps 628 mmHg 56%
    22:00 +18°C° 0 mm 0 mps 628 mmHg 59%
    23:00 +18°C° 0 mm 0 mps 628 mmHg 62%
    Show more